Location: Clyde
(45.1830°S, 169.3170°E)
Time: 17:32:19
(UTC+12:00)

NOSS 0 Rocket - Pass Details

Date: 14 May 2021
Orbit: 934 x 956 km, 70.0° (Epoch: 16 June)

Event Time Altitude Azimuth Distance (km) Brightness Sun altitude
Rises 19:17:43 0° 325° (NW) 3,623 7.6 -19.8°
Reaches altitude 10° 19:20:16 10° 322° (NW) 2,682 6.9 -20.3°
Maximum altitude 19:26:28 67° 240° (WSW) 1,039 4.3 -21.4°
Enters shadow 19:32:00 14° 158° (SSE) 2,437 5.8 -22.3°
